Location: Girdwood
(60.9430°N, 149.1660°W)
Time: 13:23:08
(UTC-08:00)

Iridium 86 - Visible Passes

Search period start: 17 April 2014 00:00
Search period end: 27 April 2014 00:00
Orbit: 776 x 779 km, 86.4° (Epoch: 17 April)

Date Brightness Start Highest point End Pass type
(mag) Time Alt. Az. Time Alt. Az. Time Alt. Az.
17 Apr 8.9 22:27:31 10° W 22:30:32 15° NW 22:33:34 10° NNW visible
18 Apr 8.5 05:21:37 10° N 05:25:37 22° ENE 05:29:35 10° ESE visible
19 Apr 8.7 04:48:29 10° NNE 04:51:35 16° NE 04:54:39 10° E visible
20 Apr 9.1 04:15:53 10° NNE 04:17:26 11° NE 04:18:59 10° ENE visible
20 Apr 9.2 22:28:49 10° WNW 22:31:01 13° NW 22:33:14 10° NNW visible
21 Apr 8.1 05:21:35 10° N 05:25:58 26° ENE 05:30:20 10° ESE visible
22 Apr 8.5 04:48:20 10° NNE 04:52:00 19° ENE 04:55:40 10° ESE visible
23 Apr 8.7 04:15:20 10° NNE 04:17:56 14° NE 04:20:32 10° E visible
23 Apr 9.3 22:30:53 10° NW 22:31:32 10° NW 22:32:11 10° NW visible
25 Apr 8.3 04:48:15 10° N 04:52:24 23° ENE 04:56:30 10° ESE visible
26 Apr 8.5 04:15:04 10° NNE 04:18:23 17° NE 04:21:41 10° E visible
